GW0895 Weather Reports


time (UTC)temp
C
wind
direction
speed
KPH
gust
KPH
rain 1hr
cm
rain 24hr
cm
rain mn
cm
humidity
%
barometer
mb
20260505035551 7 0 0.0 0.0 0.00 0.25 0.25 77 1011.7
20260505035052 8 0 0.0 11.3 0.00 0.25 0.25 77 1011.7
20260505034614 8 0 1.6 11.3 0.00 0.25 0.25 77 1011.5
20260505034048 8 0 0.0 6.4 0.00 0.25 0.25 77 1011.6
20260505033547 8 0 0.0 11.3 0.03 0.25 0.25 77 1011.7
20260505033104 8 0 1.6 11.3 0.03 0.25 0.25 78 1011.7
20260505032548 8 0 0.0 8.0 0.03 0.25 0.25 78 1011.7
20260505032051 8 0 0.0 8.0 0.03 0.25 0.25 79 1011.6
20260505031556 8 0 0.0 4.8 0.03 0.25 0.25 79 1011.6
20260505031047 8 0 0.0 6.4 0.03 0.25 0.25 80 1011.5
20260505030551 8 0 0.0 8.0 0.03 0.25 0.25 79 1011.6
20260505030055 8 0 0.0 8.0 0.03 0.25 0.25 79 1011.5
20260505025547 8 292 0.0 11.3 0.03 0.25 0.25 80 1011.3
20260505025048 8 292 1.6 11.3 0.03 0.25 0.25 80 1011.1
20260505024555 8 0 0.0 11.3 0.03 0.25 0.25 81 1011.1
20260505024046 8 0 1.6 14.5 0.03 0.25 0.25 80 1011.1
20260505023548 8 291 1.6 14.5 0.00 0.23 0.23 81 1010.9
20260505023057 8 291 3.2 14.5 0.00 0.23 0.23 81 1010.8
20260505022549 8 350 3.2 12.9 0.00 0.23 0.23 81 1010.8
20260505022050 8 0 0.0 8.0 0.00 0.23 0.23 80 1010.8
20260505021601 8 0 0.0 8.0 0.00 0.23 0.23 77 1010.8
20260505021046 8 0 1.6 16.1 0.00 0.23 0.23 77 1010.8
20260505020547 8 0 3.2 16.1 0.03 0.23 0.23 77 1010.9
20260505020052 8 5 0.0 14.5 0.05 0.23 0.23 79 1011.0
20260505015547 8 5 3.2 20.9 0.08 0.23 0.23 78 1011.1
20260505015048 8 5 4.8 20.9 0.10 0.23 0.23 79 1011.0
20260505014555 7 5 4.8 17.7 0.13 0.23 0.23 81 1011.0
20260505014046 7 5 4.8 19.3 0.15 0.23 0.23 83 1010.9
20260505013547 7 10 4.8 19.3 0.18 0.23 0.23 85 1010.8
20260505013052 7 32 0.0 6.4 0.20 0.23 0.23 87 1010.9
20260505012547 7 0 0.0 9.7 0.20 0.23 0.23 87 1011.0
20260505012047 7 0 4.8 9.7 0.23 0.23 0.23 87 1011.0
20260505011557 7 32 0.0 9.7 0.23 0.23 0.23 87 1011.0
20260505011046 7 0 0.0 20.9 0.23 0.23 0.23 87 1011.1
20260505010546 7 0 8.0 20.9 0.20 0.20 0.20 86 1011.3
20260505010100 7 34 3.2 16.1 0.18 0.18 0.18 86 1011.5
20260505005548 7 0 3.2 17.7 0.15 0.15 0.15 84 1011.5
20260505005046 7 0 6.4 22.5 0.13 0.13 0.13 83 1011.5
20260505004550 7 36 11.3 29.0 0.10 0.10 0.10 82 1011.6
20260505004046 7 28 8.0 32.2 0.08 0.08 0.08 80 1011.5
20260505003550 8 25 12.9 32.2 0.05 0.05 0.05 77 1011.5
20260505003048 8 49 16.1 32.2 0.03 0.03 0.03 74 1011.4
20260505002547 9 0 19.3 35.4 0.03 0.03 0.03 69 1011.3
20260505002047 10 49 14.5 35.4 0.00 0.00 0.00 67 1011.4
20260505001551 11 51 8.0 25.7 0.00 0.00 0.00 58 1011.1
20260505001046 12 17 4.8 24.1 0.00 0.00 0.00 56 1010.9
20260505000546 12 28 9.7 24.1 0.00 0.00 0.00 54 1010.8
20260505000101 12 112 1.6 11.3 0.00 0.00 0.00 53 1010.7
20260504235547 13 0 0.0 9.7 0.00 0.00 0.00 53 1010.5
20260504235050 13 0 0.0 9.7 0.00 0.00 0.00 53 1010.4
20260504234604 13 0 0.0 8.0 0.00 0.00 0.00 52 1010.3
20260504234050 13 0 0.0 6.4 0.00 0.00 0.00 52 1010.3
20260504233547 13 0 0.0 8.0 0.00 0.00 0.00 50 1010.3
20260504233051 13 0 0.0 8.0 0.00 0.00 0.00 51 1010.3
20260504232547 13 134 1.6 8.0 0.00 0.00 0.00 51 1010.2
20260504232047 14 0 0.0 0.0 0.00 0.00 0.00 49 1010.3
20260504231552 14 0 0.0 1.6 0.00 0.00 0.00 50 1010.3
20260504231047 13 0 0.0 8.0 0.00 0.00 0.00 50 1010.3
20260504230547 13 134 0.0 8.0 0.00 0.00 0.00 47 1010.3
20260504230052 13 0 0.0 14.5 0.00 0.00 0.00 46 1010.2
20260504225547 13 0 3.2 14.5 0.00 0.00 0.00 46 1010.3
20260504225050 14 0 0.0 12.9 0.00 0.00 0.00 46 1010.1
20260504224550 14 128 1.6 11.3 0.00 0.00 0.00 45 1010.1
20260504224047 14 0 1.6 11.3 0.00 0.00 0.00 44 1009.9
20260504223547 14 0 0.0 4.8 0.00 0.00 0.00 45 1009.9
20260504223052 15 0 0.0 0.0 0.00 0.00 0.00 44 1009.9
20260504222547 14 0 0.0 4.8 0.00 0.00 0.00 43 1010.0
20260504222051 14 0 0.0 9.7 0.00 0.00 0.00 42 1009.7
20260504221551 14 0 0.0 19.3 0.00 0.00 0.00 42 1009.7
20260504221047 14 105 3.2 19.3 0.00 0.00 0.00 41 1009.4
20260504220547 14 0 1.6 12.9 0.00 0.00 0.00 42 1009.4
20260504220100 15 145 1.6 16.1 0.00 0.00 0.00 42 1009.4
20260504215547 15 0 1.6 16.1 0.00 0.00 0.00 42 1009.3
20260504215049 15 0 0.0 19.3 0.00 0.00 0.00 42 1009.4
20260504214600 15 168 6.4 19.3 0.00 0.00 0.00 41 1009.4
20260504214048 15 152 1.6 16.1 0.00 0.00 0.00 41 1009.1
20260504213547 15 109 1.6 14.5 0.00 0.00 0.00 41 1009.2
20260504213112 15 107 3.2 14.5 0.00 0.00 0.00 42 1009.2
20260504212548 14 0 0.0 8.0 0.00 0.00 0.00 43 1009.4
20260504212046 14 89 0.0 11.3 0.00 0.00 0.00 43 1009.6
20260504211558 13 0 1.6 11.3 0.00 0.00 0.00 43 1009.6
20260504211048 13 0 0.0 17.7 0.00 0.00 0.00 43 1009.6
20260504210551 13 0 3.2 17.7 0.00 0.00 0.00 43 1009.5
20260504210105 13 78 3.2 20.9 0.00 0.00 0.00 43 1009.5
20260504205547 14 82 4.8 27.4 0.00 0.00 0.00 39 1009.5
20260504205048 15 53 4.8 27.4 0.00 0.00 0.00 37 1009.6
20260504204604 15 63 8.0 20.9 0.00 0.00 0.00 34 1009.5
20260504204049 15 46 1.6 19.3 0.00 0.00 0.00 32 1009.5
20260504203547 16 0 6.4 25.7 0.00 0.00 0.00 31 1009.4
20260504203057 16 72 6.4 25.7 0.00 0.00 0.00 30 1009.3
20260504202548 16 0 4.8 25.7 0.00 0.00 0.00 29 1009.3
20260504202048 17 78 3.2 38.6 0.00 0.00 0.00 29 1009.3
20260504201556 17 11 16.1 38.6 0.00 0.00 0.00 28 1008.9
20260504201047 18 9 17.7 30.6 0.00 0.00 0.00 26 1008.9
20260504200548 18 19 19.3 37.0 0.00 0.00 0.00 26 1009.0
20260504200058 18 28 14.5 41.8 0.00 0.00 0.00 26 1009.1
20260504195547 19 54 20.9 41.8 0.00 0.00 0.00 24 1009.1
20260504195048 19 352 12.9 32.2 0.00 0.00 0.00 25 1009.2
20260504194558 18 24 4.8 33.8 0.00 0.00 0.00 27 1009.2
20260504194047 18 0 14.5 48.3 0.00 0.00 0.00 26 1009.3
20260504193547 18 26 25.7 48.3 0.00 0.00 0.00 26 1009.2
20260504193104 18 17 12.9 27.4 0.00 0.00 0.00 26 1009.3
20260504192548 18 52 4.8 37.0 0.00 0.00 0.00 26 1009.2
20260504192050 18 36 12.9 37.0 0.00 0.00 0.00 27 1009.2
20260504191553 18 32 11.3 29.0 0.00 0.00 0.00 28 1009.2
20260504191047 17 46 4.8 25.7 0.00 0.00 0.00 30 1009.3
20260504190547 17 42 9.7 27.4 0.00 0.00 0.00 32 1009.4
20260504190054 17 62 8.0 33.8 0.00 0.00 0.00 32 1009.3
20260504185547 17 32 8.0 33.8 0.00 0.00 0.00 32 1009.5
20260504185048 17 33 11.3 33.8 0.00 0.00 0.00 31 1009.5
20260504184556 17 28 6.4 27.4 0.00 0.00 0.00 29 1009.6
20260504184048 17 0 1.6 16.1 0.00 0.00 0.00 29 1009.4
20260504183545 17 0 3.2 24.1 0.00 0.00 0.00 29 1009.4
20260504183100 17 300 8.0 24.1 0.00 0.00 0.00 29 1009.4
20260504182547 17 293 4.8 17.7 0.00 0.00 0.00 29 1009.5
20260504182048 16 0 3.2 17.7 0.00 0.00 0.00 29 1009.6
20260504181553 16 0 4.8 17.7 0.00 0.00 0.00 30 1009.7
20260504181048 16 296 1.6 22.5 0.00 0.00 0.00 30 1009.7
20260504180548 16 297 6.4 22.5 0.00 0.00 0.00 30 1009.7
20260504180131 16 306 8.0 20.9 0.00 0.00 0.00 30 1009.8
20260504175547 16 270 8.0 22.5 0.00 0.00 0.00 30 1009.9
20260504175047 16 273 9.7 22.5 0.00 0.00 0.00 30 1009.9
20260504174551 16 275 4.8 17.7 0.00 0.00 0.00 30 1009.9
20260504174047 16 265 8.0 22.5 0.00 0.00 0.00 30 1010.0
20260504173547 16 0 12.9 25.7 0.00 0.00 0.00 30 1010.1
20260504173052 16 247 11.3 25.7 0.00 0.00 0.00 30 1010.1
20260504172547 16 259 6.4 19.3 0.00 0.00 0.00 30 1010.1
20260504172047 16 0 1.6 12.9 0.00 0.00 0.00 30 1009.9
20260504171600 16 296 1.6 17.7 0.00 0.00 0.00 30 1010.0
20260504171047 16 299 4.8 24.1 0.00 0.00 0.00 30 1010.1
20260504170547 16 303 12.9 24.1 0.00 0.00 0.00 30 1009.9
20260504151048 15 0 8.0 17.7 0.00 0.00 0.00 27 1010.3
20260504150547 15 0 3.2 17.7 0.00 0.00 0.00 27 1010.4
20260504150106 15 319 3.2 16.1 0.00 0.00 0.00 27 1010.4
20260504141047 15 319 3.2 14.5 0.00 0.00 0.00 25 1010.7
20260504140547 15 323 6.4 16.1 0.00 0.00 0.00 24 1010.6
20260504130547 13 347 6.4 19.3 0.00 0.00 0.00 22 1010.4
20260504120105 10 0 3.2 6.4 0.00 0.00 0.00 28 1009.9
20260504110552 10 0 0.0 0.0 0.00 0.00 0.00 27 1010.1
20260504100550 9 0 0.0 0.0 0.00 0.00 0.00 30 1010.3
20260504100111 9 0 0.0 0.0 0.00 0.00 0.00 30 1010.3
20260504081551 10 0 0.0 1.6 0.00 0.00 0.00 26 1011.2
20260504081047 10 0 0.0 0.0 0.00 0.00 0.00 27 1011.4
20260504080547 10 0 0.0 0.0 0.00 0.00 0.00 28 1011.5
20260504080105 10 0 0.0 0.0 0.00 0.00 0.00 28 1011.4
20260504060103 12 0 0.0 0.0 0.00 0.00 0.00 29 1012.3
20260504050547 13 0 0.0 6.4 0.00 0.00 0.00 26 1012.4
20260504050119 13 0 0.0 8.0 0.00 0.00 0.00 27 1012.5
20260504045546 12 297 3.2 12.9 0.00 0.00 0.00 27 1012.5
20260504045048 12 297 3.2 12.9 0.00 0.00 0.00 28 1012.5
20260504044553 12 297 0.0 6.4 0.00 0.00 0.00 29 1012.7
20260504044048 13 0 0.0 4.8 0.00 0.00 0.00 29 1012.7
20260504043549 13 0 0.0 4.8 0.00 0.00 0.00 28 1012.8
20260504043100 13 0 0.0 4.8 0.00 0.00 0.00 26 1012.7
20260504042547 13 297 0.0 6.4 0.00 0.00 0.00 25 1012.6
20260504042049 14 0 0.0 6.4 0.00 0.00 0.00 26 1012.5
20260504041557 14 297 0.0 1.6 0.00 0.00 0.00 26 1012.6
20260504041048 14 0 0.0 0.0 0.00 0.00 0.00 27 1012.7
20260504040548 14 0 0.0 0.0 0.00 0.00 0.00 26 1012.6